Flight Track Log - Related Links

Times and Time Zones

All times are in EDT time to prevent confusion due to time zone crossing. See the N2764A flight status page for this flight to view local times or setup timezone preferences in your user account.

Time Position Orientation Groundspeed Altitude Reporting Facility
EDT Latitude Longitude Course Direction KTS MPH feet Rate Location/Type
Mon 12:50:00 PM 40.0387 -76.6998 163° South  Level Estimated
Mon 12:51:00 PM 40.0078 -76.6873 163° South  Level Estimated
Mon 12:52:00 PM 39.9769 -76.6748 163° South  Level Estimated
Mon 12:53:00 PM 39.9460 -76.6623 163° South  Level Estimated
Mon 12:54:00 PM 39.9151 -76.6498 163° South  Level Estimated
Mon 12:55:00 PM 39.8842 -76.6373 163° South  Level Estimated
Mon 12:56:00 PM 39.8533 -76.6248 163° South  Level Estimated
Mon 12:56:27 PM 39.9167 -76.5333 163° South 159 183 3,000  Level Potomac TRACON
Mon 12:57:00 PM 39.8224 -76.6124 163° South  Level Estimated
Mon 12:58:00 PM 39.7915 -76.5999 163° South  Level Estimated
Mon 12:58:21 PM 39.8500 -76.5500 191° South 167 192 2,900  Level Potomac TRACON
Mon 12:59:00 PM 39.7605 -76.5875 163° South  Level Estimated
Mon 12:59:22 PM 39.8000 -76.5333 166° South 161 185 3,000  Level Potomac TRACON
Mon 01:00:00 PM 39.7296 -76.5751 163° South  Level Estimated
Mon 01:00:22 PM 39.7500 -76.5333 180° South 158 182 3,000  Level Potomac TRACON
Mon 01:01:00 PM 39.6987 -76.5627 163° South  Level Estimated
Mon 01:01:22 PM 39.7167 -76.5167 159° South 161 185 3,000  Level Potomac TRACON
Mon 01:02:22 PM 39.6667 -76.5000 166° South 159 183 3,000  Level Potomac TRACON
Mon 01:03:16 PM 39.6333 -76.5000 180° South 153 176 3,000  Level Potomac TRACON
Mon 01:04:22 PM 39.5833 -76.4833 166° South 155 178 3,000  Level Potomac TRACON
Mon 01:05:22 PM 39.5500 -76.4667 159° South 155 178 3,000  Level Potomac TRACON
Mon 01:06:22 PM 39.5000 -76.4667 180° South 149 171 3,000  Level Potomac TRACON
Mon 01:07:22 PM 39.4667 -76.4500 159° South 156 180 3,000  Level Potomac TRACON
Mon 01:08:16 PM 39.4167 -76.4500 180° South 156 180 3,000  Level Potomac TRACON
Mon 01:09:16 PM 39.3833 -76.4333 159° South 159 183 3,000 -50 Level Potomac TRACON
Mon 01:10:16 PM 39.3333 -76.4167 166° South 162 186 2,900  Descending Potomac TRACON
Mon 01:11:16 PM 39.3000 -76.3833 142° Southeast 164 189 3,000 47 Climbing Potomac TRACON
Mon 01:12:23 PM 39.2667 -76.3333 131° Southeast 165 190 3,000  Level Potomac TRACON
Mon 01:13:17 PM 39.2333 -76.3000 142° Southeast 164 189 3,000  Level Potomac TRACON
Mon 01:14:17 PM 39.2167 -76.2500 113° Southeast 165 190 3,000  Level Potomac TRACON
Mon 01:15:11 PM 39.1833 -76.2000 131° Southeast 165 190 3,000  Level Potomac TRACON
Mon 01:16:11 PM 39.1667 -76.1667 123° Southeast 167 192 3,000  Level Potomac TRACON
Mon 01:17:11 PM 39.1333 -76.1167 131° Southeast 165 190 3,000 105 Level Potomac TRACON
Mon 01:18:05 PM 39.1167 -76.0667 113° Southeast 159 183 3,200  Climbing Potomac TRACON
Mon 01:19:05 PM 39.0833 -76.0167 131° Southeast 170 196 3,000 -250 Descending Potomac TRACON
Mon 01:20:05 PM 39.0667 -75.9667 113° Southeast 170 196 2,700 -450 Descending Potomac TRACON
Mon 01:21:05 PM 39.0333 -75.9167 131° Southeast 164 189 2,100 -600 Descending Potomac TRACON

Login

Don't have an account? Register now (free) for customized features, flight alerts, and more!